Wetbulb
67.50 67.96 71.13 73.51 74.21 73.57 72.71 72.88 72.36 71.57 71.34 71.30 70.99 70.92 70.91 71.30 71.61 71.35 71.71 72.20 72.44 72.49 71.30 70.97 70.55 70.11 70.03 69.44 69.71 71.15 70.68 70.65 70.80 70.91 71.01 70.78 70.33 69.48 69.27 68.49 69.54 69.93 70.77
64.36 68.73 71.43 73.83 73.47 73.85 73.46 72.68 72.22 71.86 71.19 70.80 70.47 70.56 70.63 71.61 72.38 72.47 71.96 72.58 72.41 71.51 70.84 70.67 70.41 70.34 69.63 69.58 70.25 70.58 70.21 69.77 69.39 69.67 69.67 69.12 69.45 68.78 68.41 68.41 69.73 69.77 70.09
63.45 69.31 72.30 74.12 73.91 73.55 74.26 73.67 73.00 72.20 71.44 70.60 70.21 70.39 70.44 70.73 71.06 72.07 72.26 72.68 72.08 71.28 70.82 70.28 70.35 69.85 69.56 69.40 69.76 69.91 69.97 69.58 68.98 68.61 68.29 68.65 68.25 69.09 68.12 68.79 69.32 69.40 70.04
66.06 70.03 72.07 73.37 74.24 74.04 73.95 74.15 73.63 72.75 71.58 71.05 70.95 71.77 71.95 72.07 71.29 72.06 71.98 72.69 72.02 71.14 70.49 70.09 70.11 69.69 69.22 69.27 69.04 69.00 69.17 68.48 67.78 67.20 67.71 68.22 67.39 68.32 68.66 67.82 68.07 68.51 69.28
66.35 70.15 72.76 73.30 73.60 73.97 73.87 74.13 74.02 73.66 72.19 71.29 71.13 71.56 72.15 73.12 73.34 73.03 72.70 72.87 72.46 71.57 70.73 70.06 69.73 69.72 69.60 68.87 68.56 68.15 68.25 67.79 67.48 68.07 67.54 68.62 68.32 67.89 68.35 68.06 67.89 67.57 67.75
63.55 68.59 73.14 73.36 73.25 73.28 73.71 73.90 74.03 74.04 72.75 71.59 70.99 71.06 71.91 73.14 73.48 73.02 72.66 72.61 71.88 71.05 69.80 69.83 69.29 69.62 69.15 68.56 67.98 68.13 68.34 67.69 66.87 68.41 68.69 68.60 68.36 68.26 67.99 68.13 67.88 67.09 67.42
60.98 68.12 72.80 72.28 73.19 73.29 72.88 72.84 73.25 73.41 73.25 72.13 71.03 70.75 71.51 72.96 73.19 72.93 71.94 71.48 70.63 70.04 69.51 69.61 69.58 69.45 68.82 68.34 67.41 68.17 68.65 67.32 67.11 67.76 68.50 68.81 69.05 68.61 67.93 67.55 67.62 67.78 66.87
58.85 61.51 66.97 69.96 72.01 72.32 72.93 73.16 73.02 71.75 72.12 72.19 71.78 70.69 71.22 72.07 72.76 72.47 71.51 70.93 70.33 70.04 69.47 69.29 69.41 69.26 68.65 68.23 67.01 67.66 68.09 66.21 65.82 66.61 67.93 68.93 69.57 69.26 68.16 67.27 66.78 66.39 66.34
57.26 60.01 60.22 61.69 64.30 69.14 70.95 71.17 71.51 72.30 72.47 72.30 71.40 72.17 71.70 71.76 72.82 72.59 71.77 71.03 70.46 70.14 69.68 69.19 69.08 69.13 68.79 68.40 66.88 66.75 67.25 65.59 66.42 66.59 67.02 68.08 68.44 69.49 68.67 67.59 66.94 66.24 66.26
54.33 56.19 56.98 59.02 61.49 61.97 63.77 66.06 69.82 70.19 70.24 70.84 71.00 70.48 69.76 69.49 70.80 72.01 70.91 70.84 71.09 70.95 70.56 69.81 68.79 68.85 69.04 68.95 67.46 66.45 66.04 65.08 65.55 65.90 66.64 67.26 67.59 68.43 68.54 67.68 67.01 66.51 66.03
53.06 54.23 55.04 54.93 55.83 57.50 60.98 61.11 66.02 68.75 68.94 69.06 69.29 67.72 68.65 71.48 71.63 71.47 69.61 68.98 70.37 70.88 70.75 69.83 69.18 69.19 68.55 67.85 67.46 65.59 64.27 66.16 65.23 65.26 65.64 65.28 67.95 68.08 67.58 67.51 67.14 66.87 66.65
50.65 51.91 52.86 53.27 54.01 55.04 55.51 58.61 60.96 62.87 68.65 70.67 70.68 70.87 70.98 70.29 71.28 70.70 68.62 67.74 69.67 70.05 70.12 70.32 69.85 69.29 67.88 67.76 67.17 65.43 65.61 65.29 64.96 65.12 65.37 64.94 68.01 68.11 67.63 67.63 67.27 66.82 66.47
48.68 50.61 51.55 51.79 52.53 52.96 53.92 55.60 57.53 60.68 61.95 66.75 69.64 70.07 70.35 70.55 70.53 70.77 71.17 70.75 70.90 67.32 70.61 70.09 69.73 69.02 68.14 67.17 65.62 64.97 65.14 64.80 64.85 64.94 65.00 64.58 66.63 68.39 68.02 67.94 67.56 67.12 66.57
47.51 48.76 50.34 50.46 51.01 51.69 52.46 53.37 54.44 55.53 58.23 60.00 63.94 67.60 69.58 69.00 68.91 68.71 69.34 69.78 69.92 70.17 69.41 69.97 69.60 69.03 68.30 67.13 65.77 63.59 63.38 64.03 64.35 64.43 64.45 63.36 65.93 67.94 68.52 68.14 67.79 67.47 67.00
46.44 47.43 48.42 48.88 49.61 50.46 50.95 52.01 52.57 52.98 54.09 55.30 57.08 59.57 65.63 68.05 68.47 68.46 68.91 68.77 68.36 68.66 68.68 68.29 67.97 68.41 68.24 67.48 66.23 64.16 62.40 62.29 63.18 63.74 64.07 61.55 63.68 66.38 68.22 68.45 68.51 67.80 67.58
45.65 46.83 47.39 48.17 48.67 49.11 50.10 50.95 51.02 51.49 52.13 53.35 54.73 56.07 57.10 62.77 64.70 67.74 68.27 68.21 68.23 68.03 68.01 67.73 67.21 66.72 66.65 67.69 66.76 65.55 63.72 62.26 61.84 62.41 63.12 63.45 62.46 64.55 66.68 68.33 68.92 68.66 68.18
47.06 47.48 48.38 49.41 49.87 48.46 48.93 49.71 50.58 50.93 51.42 51.55 52.32 53.07 53.97 55.47 58.01 62.45 65.92 67.45 67.96 68.21 67.73 67.28 67.00 66.82 65.93 66.19 66.72 66.43 65.08 62.78 62.53 61.47 61.61 61.85 62.65 62.11 64.71 67.16 68.42 68.81 68.81
46.96 46.92 47.72 48.56 49.03 49.63 49.57 49.72 49.83 50.46 50.80 51.25 51.63 52.14 52.65 53.32 54.78 56.31 59.25 63.89 66.82 67.98 67.64 66.98 66.75 66.14 65.25 64.93 64.82 65.51 65.32 64.39 63.62 63.03 62.91 62.17 62.29 62.59 63.30 65.19 67.30 68.39 69.06
46.41 46.32 46.77 47.54 47.77 48.35 49.10 49.62 50.15 50.62 50.84 51.51 51.66 51.77 52.16 52.51 53.17 54.05 55.63 58.34 60.53 65.48 66.11 66.72 66.31 66.35 65.14 64.62 64.53 65.31 65.44 64.26 64.12 63.43 62.78 62.95 63.04 63.11 63.82 63.09 63.77 65.11 66.94
46.01 46.05 46.10 46.50 47.00 47.57 48.24 48.75 49.46 49.87 50.71 51.23 51.40 51.45 51.87 52.25 52.59 53.32 54.10 54.89 57.28 60.67 63.54 65.91 65.79 65.71 65.55 65.18 64.60 63.99 64.51 63.74 63.57 64.00 62.98 61.03 61.69 62.68 63.11 63.75 64.16 64.18 63.11
45.61 45.38 45.65 45.67 46.98 46.91 46.99 46.81 47.61 47.55 48.86 49.55 50.47 51.16 51.62 52.14 52.37 52.69 53.16 53.85 55.50 56.37 57.42 60.59 64.09 64.70 63.84 64.82 63.34 62.50 62.93 63.21 62.86 62.82 64.24 63.29 60.91 61.44 62.92 63.43 63.84 64.08 64.21
44.42 45.10 45.66 46.10 46.81 47.10 47.04 47.29 47.36 47.63 48.38 49.01 49.76 50.21 50.91 51.13 51.92 52.05 52.19 52.68 53.70 54.87 55.50 57.77 60.69 62.17 64.21 64.11 61.28 60.59 58.11 59.61 61.30 62.16 63.26 63.68 62.05 61.12 60.84 62.58 63.21 63.39 64.00
44.46 44.97 45.45 46.16 46.74 47.13 47.43 47.47 47.49 47.86 47.99 47.75 48.69 49.44 50.34 50.95 51.48 51.98 52.14 52.47 52.99 53.90 54.83 56.12 57.96 59.99 61.34 64.39 63.00 61.16 56.41 55.67 59.64 61.17 61.36 61.73 62.89 62.76 62.37 60.29 61.23 62.62 62.62
44.92 45.64 45.81 46.36 46.86 47.52 48.36 47.32 46.48 45.70 45.29 47.42 48.42 49.88 50.61 51.24 51.33 51.90 52.25 52.22 52.31 53.36 53.41 55.33 57.93 60.18 60.98 60.50 62.98 63.25 62.40 59.77 55.75 56.08 58.85 59.49 60.73 61.31 62.28 61.92 60.36 59.36 60.50
45.04 45.33 45.99 46.36 46.74 47.86 48.14 47.90 47.38 46.89 47.83 48.27 48.63 49.28 50.18 50.82 51.24 51.35 51.68 51.91 51.86 52.97 52.98 53.74 54.85 56.44 59.01 59.74 61.70 61.47 61.54 61.89 61.14 57.33 56.70 58.73 57.74 59.96 60.39 61.53 61.75 61.62 59.68
44.87 45.23 45.74 45.88 46.19 47.13 47.81 48.11 47.44 46.85 46.98 47.20 48.09 48.38 49.73 50.93 50.96 50.64 50.91 51.35 51.88 52.16 52.49 53.35 54.27 54.97 55.81 58.07 59.93 61.28 60.42 59.27 58.75 57.61 56.77 57.68 58.80 61.09 61.46 61.57 59.80 60.92 61.23
MSLP
1018.17 1018.10 1018.05 1017.94 1018.02 1018.08 1018.17 1018.19 1018.25 1018.35 1018.33 1018.39 1018.50 1018.59 1018.64 1018.65 1018.68 1018.73 1018.78 1018.77 1018.71 1018.70 1018.79 1018.85 1018.96 1019.10 1019.17 1019.27 1019.27 1019.35 1019.31 1019.39 1019.46 1019.41 1019.34 1019.31 1019.30 1019.36 1019.35 1019.34 1019.20 1018.96 1018.96
1018.36 1018.06 1017.97 1018.04 1018.06 1018.20 1018.22 1018.26 1018.38 1018.52 1018.55 1018.56 1018.65 1018.70 1018.67 1018.66 1018.66 1018.75 1018.83 1018.89 1018.89 1019.00 1019.10 1019.15 1019.20 1019.28 1019.50 1019.58 1019.68 1019.70 1019.71 1019.74 1019.86 1019.88 1019.87 1019.82 1019.72 1019.68 1019.63 1019.62 1019.54 1019.39 1019.21
1018.33 1017.96 1017.80 1017.85 1018.07 1018.11 1018.28 1018.34 1018.38 1018.58 1018.68 1018.74 1018.84 1018.81 1018.79 1018.77 1018.77 1018.81 1018.97 1019.01 1018.98 1019.16 1019.29 1019.47 1019.52 1019.62 1019.80 1019.83 1019.96 1020.03 1020.06 1020.11 1020.17 1020.23 1020.18 1019.90 1019.91 1019.94 1019.86 1019.84 1019.75 1019.72 1019.62
1018.17 1017.84 1017.65 1017.68 1017.93 1018.09 1018.22 1018.36 1018.27 1018.55 1018.71 1018.83 1018.97 1018.97 1018.95 1018.91 1018.86 1018.95 1019.01 1019.10 1019.19 1019.35 1019.54 1019.73 1019.90 1019.98 1020.06 1020.14 1020.18 1020.27 1020.34 1020.44 1020.49 1020.46 1020.32 1020.24 1020.02 1020.17 1020.10 1020.06 1019.95 1020.03 1020.02
1017.97 1017.74 1017.50 1017.71 1017.89 1018.10 1018.27 1018.34 1018.22 1018.38 1018.62 1018.81 1018.99 1019.06 1019.06 1018.80 1018.89 1018.87 1019.03 1019.25 1019.37 1019.61 1019.80 1019.94 1020.14 1020.29 1020.41 1020.48 1020.44 1020.43 1020.51 1020.63 1020.71 1020.57 1020.54 1020.40 1020.10 1020.20 1020.30 1020.29 1020.23 1020.25 1020.31
1018.23 1017.78 1017.55 1017.76 1017.92 1018.15 1018.27 1018.22 1018.30 1018.36 1018.56 1018.72 1018.93 1019.09 1019.13 1019.00 1019.02 1019.08 1019.19 1019.37 1019.60 1019.79 1019.98 1020.06 1020.21 1020.48 1020.65 1020.72 1020.68 1020.57 1020.65 1020.78 1020.86 1020.68 1020.60 1020.63 1020.47 1020.45 1020.51 1020.46 1020.49 1020.53 1020.49
1018.47 1018.02 1017.87 1018.05 1018.12 1018.16 1018.37 1018.45 1018.50 1018.52 1018.70 1018.84 1018.94 1019.04 1019.10 1019.16 1019.16 1019.33 1019.47 1019.66 1019.82 1019.90 1020.06 1020.21 1020.35 1020.53 1020.72 1020.87 1020.90 1020.79 1020.85 1020.98 1020.88 1020.89 1020.81 1020.72 1020.67 1020.63 1020.68 1020.73 1020.67 1020.71 1020.66
1018.94 1018.62 1018.41 1018.43 1018.35 1018.40 1018.38 1018.45 1018.54 1018.70 1018.82 1018.84 1019.05 1019.09 1019.10 1019.21 1019.32 1019.54 1019.58 1019.69 1019.82 1019.97 1020.12 1020.32 1020.46 1020.62 1020.75 1020.85 1020.98 1021.02 1021.08 1021.13 1021.06 1020.99 1021.00 1020.82 1020.73 1020.65 1020.81 1020.93 1020.98 1020.96 1020.99
1019.35 1019.20 1018.96 1018.94 1018.82 1018.74 1018.73 1018.82 1018.74 1018.76 1018.84 1018.97 1018.98 1019.22 1019.31 1019.25 1019.30 1019.41 1019.59 1019.76 1019.82 1019.96 1020.08 1020.26 1020.44 1020.58 1020.74 1020.78 1020.93 1021.04 1021.18 1021.27 1021.10 1021.05 1021.01 1020.92 1020.90 1020.78 1020.89 1021.07 1021.13 1021.10 1021.14
1019.70 1019.54 1019.38 1019.22 1019.19 1019.13 1019.09 1019.08 1019.01 1019.02 1019.00 1019.06 1019.08 1019.18 1019.29 1019.43 1019.43 1019.47 1019.60 1019.70 1019.78 1019.88 1019.98 1020.16 1020.36 1020.52 1020.65 1020.75 1020.85 1020.99 1021.12 1021.28 1021.11 1021.23 1021.14 1020.97 1021.01 1020.78 1020.93 1021.08 1021.16 1021.20 1021.21
1020.05 1019.93 1019.82 1019.66 1019.58 1019.44 1019.36 1019.28 1019.12 1018.98 1019.02 1019.01 1019.02 1019.16 1019.22 1019.28 1019.38 1019.45 1019.48 1019.71 1019.78 1019.82 1019.91 1020.06 1020.22 1020.37 1020.59 1020.73 1020.83 1020.92 1021.09 1020.95 1021.02 1021.08 1021.09 1021.14 1021.04 1020.81 1020.87 1021.04 1021.08 1021.17 1021.24
1020.35 1020.13 1020.11 1020.08 1019.92 1019.74 1019.37 1019.37 1019.33 1019.19 1018.98 1018.84 1018.87 1019.04 1019.13 1019.26 1019.23 1019.32 1019.40 1019.56 1019.70 1019.80 1019.81 1019.89 1020.03 1020.22 1020.44 1020.43 1020.59 1020.79 1020.68 1020.77 1020.91 1020.90 1020.89 1021.02 1020.95 1020.70 1020.76 1020.93 1021.02 1021.11 1021.19
1020.94 1020.50 1020.24 1020.23 1020.12 1019.94 1019.72 1019.59 1019.46 1019.27 1019.09 1018.92 1018.79 1018.80 1018.92 1019.09 1019.16 1019.20 1019.23 1019.24 1019.30 1019.55 1019.49 1019.65 1019.76 1019.90 1020.05 1020.19 1020.38 1020.46 1020.43 1020.60 1020.56 1020.69 1020.71 1020.87 1020.80 1020.64 1020.52 1020.73 1020.86 1020.92 1020.98
1021.24 1020.90 1020.58 1020.42 1020.30 1020.12 1020.03 1019.78 1019.63 1019.53 1019.36 1019.09 1018.97 1018.90 1018.82 1018.78 1018.74 1018.85 1018.89 1019.00 1019.14 1019.16 1019.29 1019.30 1019.37 1019.50 1019.70 1019.88 1019.95 1020.13 1020.22 1020.24 1020.34 1020.35 1020.35 1020.68 1020.65 1020.49 1020.26 1020.37 1020.54 1020.68 1020.71
1021.35 1021.00 1020.66 1020.54 1020.25 1020.00 1019.91 1019.79 1019.67 1019.50 1019.43 1019.38 1019.24 1019.02 1018.82 1018.76 1018.60 1018.61 1018.43 1018.56 1018.74 1018.91 1018.96 1018.98 1019.13 1019.13 1019.23 1019.43 1019.62 1019.74 1019.83 1019.86 1019.91 1020.00 1019.97 1020.20 1020.35 1020.34 1020.25 1020.01 1020.09 1020.27 1020.38
1021.52 1021.18 1020.78 1020.39 1020.21 1019.94 1019.62 1019.58 1019.53 1019.47 1019.34 1019.28 1019.14 1019.05 1018.88 1018.58 1018.35 1018.38 1018.20 1018.17 1018.04 1018.18 1018.42 1018.50 1018.60 1018.79 1018.89 1018.85 1018.89 1019.09 1019.19 1019.36 1019.40 1019.46 1019.52 1019.54 1019.83 1019.95 1019.95 1019.87 1019.70 1019.70 1019.83
1021.76 1021.46 1020.95 1020.44 1020.16 1019.99 1019.75 1019.63 1019.50 1019.37 1019.26 1019.16 1019.00 1018.94 1018.87 1018.74 1018.55 1018.11 1017.92 1017.91 1017.73 1017.75 1017.72 1017.89 1018.01 1018.18 1018.46 1018.50 1018.41 1018.26 1018.49 1018.61 1018.61 1018.74 1018.81 1018.93 1019.05 1019.39 1019.44 1019.43 1019.39 1019.31 1019.32
1021.75 1021.46 1021.17 1020.82 1020.48 1020.12 1019.88 1019.75 1019.54 1019.36 1019.20 1018.93 1018.81 1018.75 1018.63 1018.57 1018.47 1018.32 1018.08 1017.66 1017.47 1017.32 1017.24 1017.37 1017.50 1017.52 1017.70 1017.94 1017.90 1017.85 1017.86 1017.89 1017.90 1017.96 1018.09 1018.09 1018.19 1018.38 1018.63 1018.83 1018.90 1018.90 1018.90
1021.91 1021.60 1021.21 1020.87 1020.58 1020.27 1019.85 1019.61 1019.34 1019.11 1018.89 1018.63 1018.55 1018.45 1018.29 1018.22 1018.11 1018.08 1017.88 1017.56 1017.31 1017.10 1017.03 1016.85 1016.99 1017.05 1017.06 1017.15 1017.15 1017.13 1017.27 1017.37 1017.26 1017.39 1017.48 1017.27 1017.27 1017.44 1017.66 1017.94 1018.20 1018.31 1018.44
1021.94 1021.69 1021.37 1020.98 1020.63 1020.33 1019.96 1019.46 1018.95 1018.64 1018.32 1018.27 1018.16 1018.05 1017.94 1017.85 1017.79 1017.81 1017.61 1017.35 1017.11 1016.83 1016.56 1016.53 1016.55 1016.49 1016.60 1016.53 1016.54 1016.43 1016.37 1016.40 1016.58 1016.72 1016.90 1017.17 1016.41 1016.44 1016.71 1016.94 1017.23 1017.43 1017.77
1021.69 1021.49 1021.16 1020.74 1020.36 1020.19 1019.78 1019.36 1018.84 1018.60 1018.37 1018.12 1017.95 1017.75 1017.54 1017.35 1017.29 1017.28 1017.20 1017.03 1016.84 1016.60 1016.27 1016.03 1015.94 1015.98 1015.83 1016.07 1016.15 1015.86 1015.86 1015.66 1015.30 1015.82 1016.40 1016.51 1016.17 1015.57 1015.77 1016.13 1016.24 1016.41 1016.49
1021.58 1021.24 1020.84 1020.58 1020.18 1019.89 1019.66 1019.35 1019.11 1018.67 1018.21 1017.96 1017.68 1017.32 1017.09 1016.89 1016.70 1016.52 1016.51 1016.44 1016.34 1016.18 1016.06 1015.88 1015.59 1015.35 1015.35 1015.34 1015.50 1015.58 1015.53 1015.55 1015.45 1015.29 1014.80 1015.50 1015.53 1015.17 1015.10 1015.35 1015.74 1015.63 1015.64
1021.40 1021.04 1020.66 1020.26 1019.95 1019.56 1019.22 1018.90 1018.55 1018.25 1017.92 1017.61 1017.29 1016.88 1016.47 1016.20 1015.96 1015.83 1015.71 1015.66 1015.64 1015.70 1015.49 1015.49 1015.39 1014.98 1014.61 1014.60 1014.84 1015.03 1014.81 1014.82 1014.70 1014.65 1014.83 1014.61 1014.51 1014.21 1014.22 1014.84 1014.85 1015.09 1015.24
1021.00 1020.74 1020.35 1019.86 1019.48 1019.14 1018.82 1018.46 1018.14 1017.77 1017.33 1016.96 1016.74 1016.26 1015.86 1015.57 1015.24 1015.00 1014.96 1014.88 1014.96 1014.97 1014.97 1014.85 1014.78 1014.67 1014.38 1013.99 1014.19 1014.02 1013.88 1014.08 1014.27 1014.18 1013.94 1013.91 1013.78 1013.50 1013.67 1013.98 1014.21 1014.46 1014.59
1020.59 1020.21 1019.92 1019.53 1019.16 1018.81 1018.52 1018.20 1017.74 1017.18 1016.83 1016.42 1016.18 1015.83 1015.39 1014.90 1014.71 1014.50 1014.37 1014.19 1014.21 1014.25 1014.22 1014.25 1014.33 1014.21 1014.08 1013.86 1013.49 1013.41 1013.45 1013.42 1013.62 1013.76 1013.08 1012.99 1013.02 1013.04 1013.18 1013.34 1013.43 1013.39 1013.88
1020.23 1019.87 1019.55 1019.14 1018.73 1018.47 1018.16 1017.73 1017.32 1016.86 1016.39 1015.97 1015.59 1015.10 1014.69 1014.42 1014.03 1013.92 1013.81 1013.60 1013.61 1013.56 1013.62 1013.68 1013.68 1013.73 1013.65 1013.48 1013.28 1013.05 1012.83 1012.69 1012.82 1013.10 1012.97 1012.81 1012.78 1012.49 1012.62 1012.71 1012.54 1012.82 1012.83
Wind_Speed
4 6 5 4 10 10 9 9 9 9 10 10 9 9 8 7 7 6 6 8 8 10 10 10 11 11 11 11 11 12 14 14 14 15 13 13 15 16 15 13 11 13 16
7 5 4 5 5 10 8 8 8 9 9 9 9 8 8 6 5 6 6 8 10 10 10 11 11 12 12 12 10 12 12 14 13 13 10 10 11 13 13 11 11 14 15
7 6 4 7 6 8 8 8 7 11 9 8 8 7 6 4 3 3 5 8 11 10 10 10 11 13 12 12 12 11 11 12 12 11 7 9 11 12 12 12 10 14 14
7 5 6 9 8 8 9 8 9 10 10 8 6 5 2 3 4 3 2 8 11 10 10 10 11 12 11 11 10 9 9 8 9 8 4 4 9 12 12 11 12 12 13
7 6 3 9 9 8 8 7 5 11 10 8 6 3 3 3 7 4 6 10 10 10 9 10 10 10 9 8 7 6 8 7 7 5 5 5 6 10 12 10 12 11 12
8 6 1 7 7 7 7 7 6 11 10 9 7 4 2 4 8 10 12 11 11 10 10 10 9 8 7 5 4 6 9 7 4 5 5 6 7 11 10 10 11 10 10
8 8 6 3 3 4 4 5 4 4 9 7 6 5 2 3 8 10 10 10 10 10 10 9 9 8 6 4 3 5 7 6 4 4 4 5 4 11 10 8 8 9 9
8 8 10 11 11 8 4 2 4 1 5 7 5 5 4 1 6 8 8 9 9 9 9 9 8 8 7 4 2 3 6 5 4 3 2 3 2 9 9 8 7 6 7
7 7 7 7 9 11 11 10 8 6 3 5 5 4 3 3 6 9 8 8 8 8 8 8 8 9 7 6 3 2 6 4 4 3 4 2 1 6 9 8 7 5 6
6 6 7 6 5 6 6 11 9 8 7 7 3 5 5 5 5 7 7 8 8 8 8 8 8 8 8 6 5 4 5 5 4 4 3 3 6 6 7 6 6 6 5
5 7 7 7 6 6 5 5 7 6 5 5 3 5 5 4 5 5 6 6 8 8 8 9 8 7 7 6 6 6 4 4 5 4 3 5 8 7 7 7 7 6 6
9 9 5 6 6 6 4 4 4 4 3 2 3 4 4 5 5 5 6 8 9 8 8 8 8 8 7 5 5 6 4 4 5 5 4 7 9 9 8 9 8 8 8
6 5 8 8 7 6 5 4 2 2 2 2 3 4 4 4 4 4 4 5 6 7 6 7 7 6 7 6 5 6 6 5 4 4 6 9 11 12 10 10 10 10 10
8 8 8 8 7 6 4 4 4 3 3 3 3 4 4 4 5 5 4 6 6 5 7 7 5 8 8 8 7 8 8 6 5 4 5 9 12 13 12 11 12 12 12
7 9 9 8 8 6 5 4 4 3 3 4 4 5 3 4 4 4 6 5 5 6 7 8 7 8 9 9 8 8 9 9 9 5 5 8 11 13 14 14 13 14 13
8 9 9 9 7 7 6 4 3 3 3 3 3 3 5 4 4 4 5 5 7 6 6 7 7 7 8 9 10 10 10 9 10 10 7 6 10 13 15 16 16 15 15
6 7 8 9 8 7 7 6 4 4 4 4 4 5 6 5 6 7 5 4 6 6 9 7 8 7 6 8 12 11 10 11 10 11 10 8 7 11 15 18 18 17 16
7 9 7 8 9 9 8 6 5 5 5 5 5 4 6 7 6 6 6 6 5 5 7 7 8 7 8 8 9 9 9 10 12 12 11 9 8 7 9 17 17 18 17
8 9 10 11 10 10 9 7 7 7 6 6 6 5 7 7 8 7 6 7 9 7 5 6 6 7 7 7 8 8 9 9 11 10 13 13 12 10 8 10 15 17 16
8 7 8 8 10 10 8 8 7 6 6 5 5 6 8 7 9 7 7 8 8 7 8 7 8 7 7 7 7 9 9 9 8 10 12 10 10 11 11 12 9 10 16
5 8 9 10 10 7 7 7 5 7 8 8 7 10 10 9 9 8 7 8 8 8 10 11 9 9 7 7 5 7 6 7 7 8 11 11 10 11 11 11 9 9 9
9 10 10 9 10 8 6 6 5 7 8 9 8 10 11 12 12 10 9 9 9 8 11 12 11 9 7 6 5 3 4 3 7 11 10 12 14 7 8 12 12 13 11
9 10 10 11 11 10 11 7 7 7 6 5 7 8 8 10 10 10 11 9 9 8 7 10 10 13 9 8 11 6 2 4 3 5 13 11 13 9 10 8 11 14 11
10 9 10 11 12 11 12 10 12 9 10 8 9 9 10 12 12 11 10 10 10 7 9 9 9 10 10 10 6 9 10 2 3 4 4 4 7 9 10 8 9 8 9
9 9 9 10 10 11 10 11 10 11 10 7 9 12 12 11 11 12 11 11 10 8 9 10 10 10 9 10 9 6 7 7 7 7 8 6 2 5 5 8 8 9 8
9 8 8 11 12 12 12 14 14 14 12 10 8 8 9 8 8 10 11 10 11 10 10 9 10 11 10 10 9 10 8 4 5 4 5 7 9 8 6 7 6 7 7
Wind_Direction
23 336 310 184 141 131 122 108 102 101 107 112 115 115 115 119 125 126 134 132 130 99 100 98 100 105 106 99 91 89 88 83 78 80 84 88 92 88 85 81 69 73 88
303 304 252 219 166 140 131 121 114 113 112 119 124 125 130 138 131 132 153 132 112 108 112 113 113 110 105 99 97 96 92 89 82 76 68 84 83 89 93 87 64 74 80
310 304 246 203 171 153 150 143 144 126 124 122 128 133 137 148 147 123 119 137 121 120 118 116 118 113 112 106 104 98 95 94 90 86 80 100 97 95 86 78 93 74 76
309 307 265 193 173 167 165 183 162 136 132 133 136 129 125 214 188 188 208 148 125 123 121 123 120 122 117 109 100 103 103 97 93 96 110 112 106 102 108 91 84 90 76
351 329 238 186 176 173 177 199 205 144 142 145 147 128 19 102 181 200 156 134 120 119 126 130 130 130 117 110 106 121 125 111 104 113 93 119 118 106 106 105 100 92 95
359 358 70 185 181 184 185 206 240 152 153 150 152 141 39 132 123 117 121 119 120 125 138 143 147 140 121 117 102 127 135 122 122 112 119 114 125 126 122 119 119 103 93
14 26 53 21 185 184 209 228 238 180 145 150 155 158 122 138 133 129 127 127 135 142 149 156 158 153 144 127 82 140 137 129 129 112 110 132 165 126 125 109 108 111 102
31 31 44 47 54 45 18 279 269 164 170 161 164 173 166 140 158 147 147 150 154 157 159 167 171 169 164 152 90 147 149 150 165 152 143 136 116 144 130 127 126 123 121
25 34 48 42 33 36 37 32 18 346 258 208 184 185 202 188 172 165 169 172 172 172 172 177 185 185 184 174 137 134 163 165 188 183 179 173 267 129 132 144 153 145 139
29 28 29 34 36 42 40 28 20 13 3 327 225 196 217 229 208 189 186 192 189 187 184 184 193 198 198 190 169 159 181 185 212 202 214 216 243 178 154 167 171 167 160
20 27 18 22 20 19 32 15 16 11 355 347 298 246 203 223 229 227 207 211 213 199 196 198 201 202 203 203 201 184 179 214 213 216 221 234 231 202 192 186 187 187 186
345 345 4 7 2 355 357 5 354 357 351 307 285 273 241 227 229 238 227 216 225 221 215 214 213 209 207 213 212 208 218 214 223 228 228 235 239 225 207 201 200 204 207
314 318 338 345 343 342 336 337 323 326 342 337 297 240 214 226 235 236 238 226 225 220 228 226 228 229 224 220 220 225 219 222 219 227 240 238 237 241 223 212 215 215 216
326 316 332 340 335 333 325 318 315 320 326 329 341 320 269 245 229 224 219 230 234 228 226 229 230 236 233 231 227 234 232 225 228 230 236 243 244 241 242 225 224 226 226
324 319 316 322 318 309 302 302 305 314 313 318 321 316 312 286 253 234 226 213 223 231 232 230 232 238 238 236 235 230 236 233 232 235 240 222 240 244 247 249 230 233 232
327 328 324 323 315 301 285 281 289 290 295 294 291 289 298 288 279 279 244 227 222 201 222 236 228 228 236 237 238 234 234 237 238 232 239 240 232 240 244 246 250 240 240
340 332 344 340 344 335 316 308 296 293 298 285 283 291 285 278 278 279 270 268 237 223 216 216 225 224 227 232 241 237 237 233 235 236 232 233 236 232 238 241 243 248 246
328 333 325 339 339 343 342 330 314 305 291 277 274 274 273 274 272 271 275 269 265 247 220 217 221 217 218 223 238 238 236 239 240 237 234 229 225 234 229 234 237 244 246
324 327 329 332 332 328 322 316 306 296 285 282 283 276 270 267 265 258 257 259 269 270 256 235 227 226 222 222 227 227 234 236 239 243 246 232 227 225 232 231 229 234 241
321 323 319 320 323 325 318 312 301 290 281 277 276 276 277 270 269 265 263 260 258 255 256 247 243 220 232 234 229 233 229 228 232 245 243 246 225 223 226 228 231 234 232
331 332 335 330 332 327 325 323 317 311 306 297 290 283 278 275 274 266 261 265 260 255 253 252 256 246 219 235 244 251 244 230 220 243 251 247 237 218 227 233 229 231 229
316 322 326 321 316 316 308 296 282 292 289 286 284 278 273 271 265 260 254 254 253 252 256 255 251 250 247 195 231 219 259 211 234 225 223 242 231 217 222 240 243 235 233
314 315 312 308 306 306 300 298 290 279 274 280 278 277 266 259 256 253 253 246 246 245 243 249 253 249 250 228 210 233 209 222 175 210 233 229 240 223 227 215 233 244 239
315 304 302 302 305 305 303 300 293 287 288 284 277 275 271 266 259 253 249 247 245 242 242 243 246 252 249 246 223 227 236 270 219 229 188 228 245 244 241 227 223 219 229
308 306 303 298 297 297 298 294 289 286 282 282 280 277 274 267 261 259 253 250 244 238 237 235 243 243 248 252 250 224 233 239 247 243 265 243 213 235 241 247 235 229 218
309 311 314 314 316 314 312 305 303 286 287 286 269 283 281 267 261 250 250 247 247 242 237 236 236 243 247 251 257 255 239 218 203 218 245 264 262 263 236 227 216 227 222